WetterOnline ( http://www.wetteronline.de )

Wetter aktuell Feldberger Seenlandschaft

Aktuelles Wetter: Feldberg (115m)

6-stündlich | Neueste Meldungen
Ortszeit Temperatur Wetter
Do, 16.08. 2:00 15.1° C bedeckt
Mi, 15.08. 20:00 20.7° C fast wolkenlos
Mi, 15.08. 14:00 21.7° C bewölkt
Mi, 15.08. 8:00 16.9° C bewölkt
Mi, 15.08. 2:00 17.1° C bewölkt
Di, 14.08. 20:00 18.8° C leichter Regen
Di, 14.08. 14:00 23.8° C wolkig
Di, 14.08. 8:00 17.3° C bewölkt
Ortszeit Temperatur Wetter
Do, 16.08. 5:30 14.6° C leicht bewölkt
Do, 16.08. 5:20 14.6° C leicht bewölkt
Do, 16.08. 5:10 14.9° C leicht bewölkt
Do, 16.08. 5:00 15.6° C bewölkt
Do, 16.08. 4:50 15.6° C bewölkt
Do, 16.08. 4:40 15.9° C bedeckt
Do, 16.08. 4:30 16.2° C bedeckt
Do, 16.08. 4:00 16.3° C bedeckt
Do, 16.08. 3:30 16.0° C bedeckt
Do, 16.08. 3:00 16.0° C bedeckt
Do, 16.08. 2:30 15.9° C bedeckt
Ortszeit Relative Feuchte Sichtweite
Do, 16.08. 2:00 88% 19 km
Mi, 15.08. 20:00 62% 45 km
Mi, 15.08. 14:00 60% 55 km
Mi, 15.08. 8:00 89% 30 km
Mi, 15.08. 2:00 93% 12 km
Di, 14.08. 20:00 85% 21 km
Di, 14.08. 14:00 53% 35 km
Di, 14.08. 8:00 80% 21 km
Ortszeit Relative Feuchte Sichtweite
Do, 16.08. 5:30 93% 12 km
Do, 16.08. 5:20 93% -
Do, 16.08. 5:10 91% -
Do, 16.08. 5:00 90% 16 km
Do, 16.08. 4:50 90% -
Do, 16.08. 4:40 87% -
Do, 16.08. 4:30 86% 22 km
Do, 16.08. 4:00 86% 23 km
Do, 16.08. 3:30 88% 22 km
Do, 16.08. 3:00 89% 22 km
Do, 16.08. 2:30 87% 24 km
Ortszeit Niederschlagsmenge Niederschlagsart
Do, 16.08. 2:00 0.0 l/m2 in 6 Std. -
Mi, 15.08. 20:00 0.1 l/m2 in 12 Std. -
Mi, 15.08. 14:00 0.1 l/m2 in 6 Std. Regen
Mi, 15.08. 8:00 0.2 l/m2 in 12 Std. Regen
Mi, 15.08. 2:00 0.2 l/m2 in 6 Std. Regen
Di, 14.08. 20:00 0.2 l/m2 in 12 Std. Regen
Di, 14.08. 14:00 0.0 l/m2 in 6 Std. -
Di, 14.08. 8:00 0.0 l/m2 in 12 Std. -
Ortszeit Niederschlagsmenge Niederschlagsart
Do, 16.08. 5:30 0.0 l/m2 in 1 Std. -
Do, 16.08. 5:20 keine Meldung -
Do, 16.08. 5:10 keine Meldung -
Do, 16.08. 5:00 0.0 l/m2 in 1 Std. -
Do, 16.08. 4:50 keine Meldung -
Do, 16.08. 4:40 keine Meldung -
Do, 16.08. 4:30 0.0 l/m2 in 1 Std. -
Do, 16.08. 4:00 0.0 l/m2 in 1 Std. -
Do, 16.08. 3:30 0.0 l/m2 in 1 Std. -
Do, 16.08. 3:00 0.0 l/m2 in 1 Std. -
Do, 16.08. 2:30 0.0 l/m2 in 1 Std. -
Ortszeit Stärke Spitze Richtung
km/h Bft. km/h Grad Sektor
Do, 16.08. 2:00 4 1 14 180° S
Mi, 15.08. 20:00 11 2 36 250° W
Mi, 15.08. 14:00 17 3 30 270° W
Mi, 15.08. 8:00 14 3 29 280° W
Mi, 15.08. 2:00 18 3 29 270° W
Di, 14.08. 20:00 14 3 43 260° W
Di, 14.08. 14:00 22 4 43 250° W
Di, 14.08. 8:00 17 3 26 260° W
Ortszeit Stärke Spitze Richtung
km/h Bft. km/h Grad Sektor
Do, 16.08. 5:30 2 1 4 150° SO
Do, 16.08. 5:20 2 1 - 150° SO
Do, 16.08. 5:10 2 1 - 180° S
Do, 16.08. 5:00 4 1 11 170° S
Do, 16.08. 4:50 4 1 - 170° S
Do, 16.08. 4:40 2 1 - 170° S
Do, 16.08. 4:30 7 2 11 260° W
Do, 16.08. 4:00 2 1 6 230° SW
Do, 16.08. 3:30 4 1 4 160° S
Do, 16.08. 3:00 0 0 4 - -
Do, 16.08. 2:30 0 0 4 - -
Ortszeit Untergrenze Bedeckung Gattung
total tief tief mittel hoch
Do, 16.08. 2:00 2400 m 8/8 8/8 - - -
Mi, 15.08. 20:00 1080 m 1/8 1/8 - - -
Mi, 15.08. 14:00 900 m 7/8 7/8 - - -
Mi, 15.08. 8:00 300 m 7/8 7/8 - - -
Mi, 15.08. 2:00 240 m 7/8 7/8 - - -
Di, 14.08. 20:00 990 m 7/8 7/8 - - -
Di, 14.08. 14:00 1260 m 5/8 5/8 - - -
Di, 14.08. 8:00 420 m 7/8 7/8 - - -
Ortszeit Bedeckungsgrad in Achtel und Wolkenuntergrenze
Do, 16.08. 5:30 2(2400m)
Do, 16.08. 5:20 2(2400m)
Do, 16.08. 5:10 4(2400m)
Do, 16.08. 5:00 7(2400m)
Do, 16.08. 4:50 7(2400m)
Do, 16.08. 4:40 8(2400m)
Do, 16.08. 4:30 8(2400m)
Do, 16.08. 4:00 8(2400m)
Do, 16.08. 3:30 8(2400m)
Do, 16.08. 3:00 8(2400m)
Do, 16.08. 2:30 8(2400m)
Ortszeit Luftdruck NN (hPa) Tendenz (hPa in 3 Std.)
Do, 16.08. 2:00 1019 + 0,3
Mi, 15.08. 20:00 1018 + 0,3
Mi, 15.08. 14:00 1018 + 0,5
Mi, 15.08. 8:00 1016 + 1,4
Mi, 15.08. 2:00 1013 + 1,1
Di, 14.08. 20:00 1010 + 0,9
Di, 14.08. 14:00 1009 + 0,2
Di, 14.08. 8:00 1008 + 1,1
Ortszeit Luftdruck NN (hPa) Tendenz (hPa in 3 Std.)
Do, 16.08. 5:30 1019 - 0,2
Do, 16.08. 5:20 1019 keine Meldung
Do, 16.08. 5:10 1019 keine Meldung
Do, 16.08. 5:00 1019 - 0,2
Do, 16.08. 4:50 1019 keine Meldung
Do, 16.08. 4:40 1019 keine Meldung
Do, 16.08. 4:30 1019 - 0,1
Do, 16.08. 4:00 1019 0,0
Do, 16.08. 3:30 1019 0,0
Do, 16.08. 3:00 1019 + 0,1
Do, 16.08. 2:30 1019 + 0,2
Ortszeit Schneehöhe (cm)
Do, 16.08. 2:00 -
Mi, 15.08. 20:00 -
Mi, 15.08. 14:00 -
Mi, 15.08. 8:00 -
Mi, 15.08. 2:00 -
Di, 14.08. 20:00 -
Di, 14.08. 14:00 -
Di, 14.08. 8:00 -
Ortszeit Schneehöhe (cm)
Do, 16.08. 5:30 -
Do, 16.08. 5:20 -
Do, 16.08. 5:10 -
Do, 16.08. 5:00 -
Do, 16.08. 4:50 -
Do, 16.08. 4:40 -
Do, 16.08. 4:30 -
Do, 16.08. 4:00 -
Do, 16.08. 3:30 -
Do, 16.08. 3:00 -
Do, 16.08. 2:30 -
Link zu dieser Seite / Seite empfehlen

Das Wetter in ...